Volver al catálogo

AEROCUBE 18B

ActivoCienciaSSO
NORAD 63222·PAYLOAD·🇺🇸 United States

Lanzado Mar 15, 2025 desde Vandenberg Space Force Base

Loading…

Próximos Pases (próximas 24 horas)

TLE

ActualizadoSource: Space-Track

Época: Sep 14, 2026, 12:06 UTC

1 63222U 25052N   26257.50447864  .00004751  00000-0  19191-3 0  9990
2 63222  97.3831 149.7989 0004884 153.2556 206.8935 15.25233343 83506

Sigue AEROCUBE 18B en tiempo real con AllMySat

Download on the App Store